Starlink 32327

operational
NORAD ID: 61641 Int'l Des: 2024-191 Owner: SPXS Country: US Constellation: starlink
LEOCIRCULAR

About Starlink 32327

Description loading...

Live Position

Loading 3D Globe...

Upcoming Passes

Altitude History

Altitude vs Time

uPlot chart will show altitude changes over time

Two-Line Element Set

1 61641U 24191W 25304.32392603 -.00004075 00000-0 -13871-3 0 9998
2 61641 43.0039 164.9123 0001656 280.9525 79.1140 15.27563395 57756
Epoch: Oct 31, 2025 • Age: 16 hours

Current Status

Altitude 485.5 km
Velocity 7.63 km/s
Sub-Earth Point 34.00°N, 105.62°W
Launch Date Oct 23, 2024
Age 1 years
Type internet

Technical Details

Classification Payload
Mass 730.00 kg
Dry Mass 700.00 kg
Total Mass 730.00 kg
Length 0.30 m
Diameter 4.10 m
Span 29.00 m
Shape Box + pan
Manufacturer SPXS
Bus Type Starlink V2M
Phase Status In Orbit
Owner/State SPXS/US

Large Constellations

Loading constellations...